Flag for U.S.A. Weather past 2 weeks in Allentown, Pennsylvania, U.S.A.

Now
37 °F

Mostly cloudy.


Feels Like: 31 °F
Forecast: 33 / 51 °F
Wind: 8 mph from Southwest

Location: Lehigh Valley International Airport

Current Time: Mar 30, 2015 at 3:30:21 AM

Latest Report: Mar 30, 2015 at 2:51 AM


Visibility: 10 mi

Pressure: 30.04 "Hg

Humidity: 39%

Dew point: 14 °F

Location of AllentownLocation

Historic Weather in Allentown — Graph

°F

Allentown temperature yesterday

Maximum temperature yesterday: 45 °F (at 4:51 PM)
Minimum temperature yesterday: 22 °F (at 4:51 AM)
Average temperature yesterday: 33 °F

Past Weeks' High & Low Weather Summary

 TemperatureHumidityPressure
High58 °F (Mar 17, 11:51 AM)100% (Mar 21, 8:51 AM)30.41 "Hg (Mar 21, 8:51 AM)
Low22 °F (Mar 19, 4:51 AM)19% (Mar 18, 3:51 PM)29.59 "Hg (Mar 26, 6:03 PM)
Average36 °F56%30.06 "Hg
* Reported Mar 15 1:51 AM — Mar 30 1:51 AM, Allentown, Weather by CustomWeather, © 2015

Note: Actual official high and low records may vary slightly from our data, if they occured in-between our weather recording intervals... More about our weather records

Advertising

Allentown weather history for previous 24 hours

 ConditionsComfort  
Time TempWeatherWind HumidityBarometerVisibility
1:51 AM
Mon, Mar 30
37 °FOvercast.6 mph39%30.05 "Hg10 mi
12:51 AM37 °FClear.9 mph37%30.08 "Hg10 mi
11:51 PM
Sun, Mar 29
37 °FClear.9 mph36%30.11 "Hg10 mi
10:51 PM38 °FClear.9 mph31%30.11 "Hg10 mi
9:51 PM38 °FClear.9 mph33%30.14 "Hg10 mi
8:51 PM38 °FClear.6 mph31%30.15 "Hg10 mi
7:51 PM36 °FSunny.9 mph35%30.15 "Hg10 mi
6:51 PM42 °FSunny.14 mph27%30.16 "Hg10 mi
5:51 PM45 °FSunny.10 mph21%30.18 "Hg10 mi
4:51 PM45 °FSunny.9 mph20%30.19 "Hg10 mi
3:51 PM44 °FLight rain. Sunny.8 mph23%30.20 "Hg10 mi
2:51 PM42 °FSunny.5 mph23%30.23 "Hg10 mi
1:51 PM41 °FSunny.8 mph23%30.27 "Hg10 mi
12:51 PM39 °FLight rain. Sunny.6 mph28%30.29 "Hg10 mi
11:51 AM37 °FLight rain. Sunny.12 mph33%30.32 "Hg10 mi
10:51 AM34 °FSunny.12 mph37%30.33 "Hg10 mi
9:51 AM30 °FSunny.12 mph43%30.33 "Hg10 mi
8:51 AM27 °FLight snow. Sunny.9 mph51%30.32 "Hg10 mi
7:51 AM24 °FSunny.6 mph52%30.31 "Hg10 mi
6:51 AM23 °FClear.8 mph55%30.27 "Hg10 mi
5:51 AM22 °FClear.7 mph50%30.25 "Hg10 mi
4:51 AM22 °FClear.3 mph48%30.22 "Hg10 mi
3:51 AM23 °FPassing clouds.7 mph48%30.21 "Hg10 mi
Weather by CustomWeather, © 2015

See weather overviewHow to use our weather pages